{"data":{"norad_id":65925,"epoch":"2026-09-20T22:03:52.335072Z","epoch_age_seconds":66888,"freshness":"FRESH","line1":"1 65925U 25225R   26263.91935573  .00014519  00000+0  44054-3 0  9993","line2":"2 65925  53.1598 335.6635 0001345  71.9724 288.1425 15.34361803 54344","mean_motion":15.34361803,"eccentricity":0.0001345,"inclination_deg":53.1598,"raan_deg":335.6635,"arg_perigee_deg":71.9724,"mean_anomaly_deg":288.1425,"bstar":0.00044054,"rev_number":5434,"period_min":93.850094363956,"perigee_km":461.89666381361,"apogee_km":463.7368803783,"semimajor_km":6840.953772096,"source":"CELESTRAK","updated_at":"2026-09-21T09:00:35.765287Z"}}